Hourly Weather Roundup
Issued by NWS Central Illinois

Home | Current Version | Previous Version | Text Only | Print | Product List | Glossary On
Versions: 1 2 3 4 5 6 7 8 9 10 11 12 13 14 15 16 17 18 19 20 21 22 23 24 25 26 27 28 29 30 31 32 33 34 35 36 37 38 39 40 41 42 43 44 45 46 47 48 49 50
000
NZUS43 KILX 021910
HWRILX

AREA WEATHER ROUNDUP
NATIONAL WEATHER SERVICE, LINCOLN IL
100 PM CST MON MAR 02 2015


CITY           SKY/WX    TMP DP  RH WIND       PRES   REMARKS
BLOOMINGTON    NOT AVBL
CHAMPAIGN      PTSUNNY   25  16  68 E7        30.50F WCI  17
DECATUR        PTSUNNY   26  18  71 E9        30.49F WCI  17
FLORA          NOT AVBL
GALESBURG      NOT AVBL
JACKSONVILLE   NOT AVBL
LACON          NOT AVBL
LAWRENCEVILLE  SUNNY     32  17  54 NE6       30.51F WCI  26
LITCHFIELD     NOT AVBL
$$


CITY           SKY/WX    TMP DP  RH WIND       PRES   REMARKS
LINCOLN        NOT AVBL
MACOMB         NOT AVBL
MATTOON        MOSUNNY   28  18  66 N8        30.49F WCI  20
MT CARMEL AP   NOT AVBL
OLNEY-NOBLE AP NOT AVBL
PARIS          NOT AVBL
PEORIA         PTSUNNY   35  15  44 VRB3      30.48F
PONTIAC        NOT AVBL
RANTOUL        NOT AVBL
ROBINSON       NOT AVBL
SPRINGFIELD    PTSUNNY   32  19  58 E6        30.49F WCI  26
TAYLORVILLE    NOT AVBL
$$

...REGIONAL REPORTS...


CITY           SKY/WX    TMP DP  RH WIND       PRES   REMARKS
CHICAGO O`HARE PTSUNNY   30  12  47 VRB6      30.48F WCI  24
KANKAKEE       NOT AVBL
MOLINE         SUNNY     29  15  56 E6        30.47F WCI  23
MOUNT VERNON   MOSUNNY   32  18  55 E8        30.50F WCI  25
PITTSFIELD     NOT AVBL
QUINCY         PTSUNNY   31  16  54 SE3       30.46F
ROCKFORD       CLOUDY    27  11  51 CALM      30.48F
$$


CITY           SKY/WX    TMP DP  RH WIND       PRES   REMARKS
BURLINGTON     PTSUNNY   28  13  53 E3        30.47F
CEDAR RAPIDS   SUNNY     23  15  71 CALM      30.45F
DES MOINES     CLOUDY    30  14  51 SE7       30.42F WCI  23
KIRKSVILLE     PTSUNNY   31  20  63 SE6       30.44F WCI  25
OTTUMWA        CLOUDY    29  14  53 E6        30.45F WCI  23
ST LOUIS       PTSUNNY   34  17  50 SE7       30.49F WCI  28
$$


CITY           SKY/WX    TMP DP  RH WIND       PRES   REMARKS
TERRE HAUTE    SUNNY     31  15  52 E5        30.49F WCI  26
EVANSVILLE     SUNNY     35  18  49 E9        30.49F WCI  28
INDIANAPOLIS   PTSUNNY   30  16  56 CALM      30.47F
LAFAYETTE      MOSUNNY   28  15  58 CALM      30.50F
MADISON        PTSUNNY   26   7  44 VRB6      30.46F WCI  19
MILWAUKEE      MOSUNNY   27   7  42 VRB5      30.47F WCI  22
$$




USA.gov is the U.S. government's official web portal to all federal, state and local government web resources and services.